Flight Track Log - Related Links

Times and Time Zones

All times are in EDT time to prevent confusion due to time zone crossing. See the CTL18 flight status page for this flight to view local times or setup timezone preferences in your user account.

Time Position Orientation Groundspeed Altitude Reporting Facility
EDT Latitude Longitude Course Direction KTS MPH feet Rate Location/Type
Thu 20:58:39 42.2086 -83.5744 230° Southwest 117 135 1,900  Level Cleveland Center
Thu 20:59:40 42.1828 -83.6039 220° Southwest 136 157 2,700 836 Climbing Cleveland Center
Thu 21:00:41 42.1547 -83.6392 223° Southwest 137 158 3,600 783 Climbing Cleveland Center
Thu 21:01:35 42.1269 -83.6686 218° Southwest 143 165 4,200 771 Climbing Cleveland Center
Thu 21:02:30 42.0897 -83.6611 171° South 150 173 5,000 923 Climbing Cleveland Center
Thu 21:03:19 42.0567 -83.6483 164° South 151 174 5,800 887 Climbing Cleveland Center
Thu 21:04:25 42.0353 -83.5914 117° Southeast 154 177 6,700 541 Climbing Cleveland Center
Thu 21:05:32 41.9922 -83.5586 150° Southeast 173 199 7,000 148 Climbing Cleveland Center
Thu 21:06:27 41.9622 -83.5125 131° Southeast 187 215 7,000 -52 Level Cleveland Center
Thu 21:07:27 41.9450 -83.4475 110° East 191 220 6,900  Descending Cleveland Center
Thu 21:08:28 41.9281 -83.3769 108° East 191 220 7,000 49 Climbing Cleveland Center
Thu 21:09:29 41.9131 -83.3094 107° East 191 220 7,000  Level Cleveland Center
Thu 21:10:29 41.8978 -83.2417 107° East 189 217 7,000 -47 Level Cleveland Center
Thu 21:11:36 41.8808 -83.1686 107° East 191 220 6,900  Descending Cleveland Center
Thu 21:12:49 41.8575 -83.0839 110° East 190 219 7,000 43 Climbing Cleveland Center
Thu 21:13:55 41.8383 -83.0081 109° East 191 220 7,000 52 Level Cleveland Center
Thu 21:14:44 41.8250 -82.9544 108° East 191 220 7,100 65 Climbing Cleveland Center
Thu 21:15:27 41.8153 -82.9122 107° East 193 222 7,100  Level Cleveland Center
Thu 21:16:28 41.8000 -82.8422 106° East 192 221 7,100  Level Cleveland Center
Thu 21:17:34 41.7808 -82.7664 109° East 192 221 7,100  Level Cleveland Center
Thu 21:18:35 41.7633 -82.6961 108° East 190 219 7,100 -198 Level Cleveland Center
Thu 21:19:35 41.7436 -82.6314 112° Southeast 196 226 6,700 -496 Descending Cleveland Center
Thu 21:20:36 41.7094 -82.5664 125° Southeast 205 236 6,100 -672 Descending Cleveland Center
Thu 21:21:31 41.6831 -82.5100 122° Southeast 205 236 5,400 -678 Descending Cleveland Center
Thu 21:22:31 41.6550 -82.4422 119° Southeast 205 236 4,800 -520 Descending Cleveland Center
Thu 21:23:38 41.6356 -82.3639 108° East 196 226 4,300 -328 Descending Cleveland Center
Thu 21:24:39 41.6242 -82.2942 102° East 190 219 4,100 -99 Descending Cleveland Center
Thu 21:25:39 41.6125 -82.2244 103° East 187 215 4,100  Level Cleveland Center
Thu 21:26:40 41.6011 -82.1547 102° East 188 216 4,100 -52 Level Cleveland Center
Thu 21:27:34 41.5914 -82.0964 103° East 187 215 4,000 -52 Descending Cleveland Center
Thu 21:28:35 41.5797 -82.0267 103° East 187 215 4,000 52 Level Cleveland Center
Thu 21:29:29 41.5806 -81.9656 89° East 175 201 4,100  Climbing Cleveland Center
Thu 21:30:30 41.5792 -81.8989 92° East 186 214 4,000 -344 Descending Cleveland Center
Thu 21:31:31 41.5758 -81.8267 94° East 195 224 3,400 -645 Descending Cleveland Center
Thu 21:32:31 41.5789 -81.7517 87° East 197 227 2,700 -893 Descending Cleveland Center
Thu 21:33:32 41.5503 -81.6875 121° Southeast 177 204 1,600 -1,082 Descending Cleveland Center
Thu 21:35:00 41.5303 -81.6530 217° Southwest  Level FlightAware
Thu 21:42:00 41.5167 -81.6667 217° Southwest  Level FlightAware

Login

Don't have an account? Register now (free) for customized features, flight alerts, and more!